| time (UTC) | temp F | wind direction | speed knots | gust knots | rain 1hr in | rain 24hr in | rain mn in | humidity % | barometer mb |
| 20260506025023 | 58 | 329 | 0.9 | 0.9 | 0.00 | 0.00 | 0.00 | 75 | 1010.2 |
| 20260506024019 | 58 | 313 | 0.9 | 2.6 | 0.00 | 0.00 | 0.00 | 75 | 1010.1 |
| 20260506023033 | 59 | 280 | 0.9 | 1.7 | 0.00 | 0.00 | 0.00 | 75 | 1010.2 |
| 20260506022049 | 59 | 307 | 0.0 | 1.7 | 0.00 | 0.00 | 0.00 | 74 | 1010.0 |
| 20260506021024 | 59 | 310 | 0.9 | 1.7 | 0.00 | 0.00 | 0.00 | 72 | 1009.8 |
| 20260506020020 | 59 | 328 | 0.0 | 1.7 | 0.00 | 0.00 | 0.00 | 72 | 1009.9 |
| 20260506015055 | 59 | 330 | 0.9 | 1.7 | 0.00 | 0.00 | 0.00 | 71 | 1009.9 |
| 20260506014031 | 60 | 327 | 1.7 | 3.5 | 0.00 | 0.00 | 0.00 | 69 | 1009.8 |
| 20260506013026 | 60 | 328 | 0.0 | 0.9 | 0.00 | 0.00 | 0.00 | 68 | 1010.0 |
| 20260506012021 | 60 | 338 | 0.0 | 1.7 | 0.00 | 0.00 | 0.00 | 67 | 1009.9 |
| 20260506011037 | 60 | 295 | 0.9 | 3.5 | 0.00 | 0.00 | 0.00 | 67 | 1010.1 |
| 20260506010032 | 60 | 300 | 0.9 | 1.7 | 0.00 | 0.00 | 0.00 | 66 | 1010.1 |
| 20260506005027 | 60 | 298 | 0.0 | 1.7 | 0.00 | 0.00 | 0.00 | 65 | 1010.2 |
| 20260506004023 | 61 | 298 | 0.9 | 1.7 | 0.00 | 0.00 | 0.00 | 65 | 1010.3 |
| 20260506003019 | 61 | 303 | 0.0 | 1.7 | 0.00 | 0.00 | 0.00 | 64 | 1010.4 |
| 20260506002055 | 61 | 275 | 0.9 | 1.7 | 0.00 | 0.00 | 0.00 | 64 | 1010.4 |
| 20260506001029 | 61 | 263 | 0.9 | 1.7 | 0.00 | 0.00 | 0.00 | 63 | 1010.5 |
| 20260506000024 | 61 | 263 | 0.9 | 0.9 | 0.00 | 0.00 | 0.00 | 63 | 1010.6 |
| 20260505235020 | 61 | 272 | 0.9 | 1.7 | 0.00 | 0.00 | 0.00 | 63 | 1010.6 |
| 20260505234016 | 61 | 286 | 0.0 | 0.9 | 0.00 | 0.00 | 0.00 | 63 | 1010.4 |
| 20260505233031 | 61 | 332 | 0.0 | 0.9 | 0.00 | 0.00 | 0.00 | 63 | 1010.5 |
| 20260505232026 | 61 | 0.0 | 0.0 | 0.00 | 0.00 | 0.00 | 62 | 1010.5 | |
| 20260505231021 | 61 | 18 | 0.0 | 0.9 | 0.00 | 0.00 | 0.00 | 62 | 1010.4 |
| 20260505230017 | 62 | 34 | 0.9 | 2.6 | 0.00 | 0.00 | 0.00 | 62 | 1010.3 |
| 20260505225032 | 61 | 48 | 0.9 | 1.7 | 0.00 | 0.00 | 0.00 | 63 | 1010.1 |
| 20260505224028 | 61 | 60 | 0.9 | 2.6 | 0.00 | 0.00 | 0.00 | 63 | 1010.3 |
| 20260505223023 | 62 | 73 | 0.0 | 1.7 | 0.00 | 0.00 | 0.00 | 64 | 1010.3 |
| 20260505222019 | 62 | 66 | 0.9 | 3.5 | 0.00 | 0.00 | 0.00 | 62 | 1010.3 |
| 20260505221034 | 62 | 33 | 2.6 | 7.0 | 0.00 | 0.00 | 0.00 | 62 | 1010.2 |
| 20260505220029 | 63 | 44 | 2.6 | 6.1 | 0.00 | 0.00 | 0.00 | 62 | 1010.2 |
| 20260505215025 | 63 | 52 | 1.7 | 7.8 | 0.00 | 0.00 | 0.00 | 62 | 1010.2 |
| 20260505214020 | 63 | 53 | 3.5 | 8.7 | 0.00 | 0.00 | 0.00 | 62 | 1010.1 |
| 20260505213015 | 63 | 43 | 5.2 | 9.6 | 0.00 | 0.00 | 0.00 | 62 | 1010.0 |
| 20260505212031 | 63 | 46 | 5.2 | 13.0 | 0.00 | 0.00 | 0.00 | 62 | 1010.1 |
| 20260505211027 | 63 | 56 | 6.1 | 12.2 | 0.00 | 0.00 | 0.00 | 62 | 1010.2 |
| 20260505210042 | 63 | 56 | 4.3 | 11.3 | 0.00 | 0.00 | 0.00 | 63 | 1010.2 |
| 20260505205017 | 63 | 56 | 4.3 | 11.3 | 0.00 | 0.00 | 0.00 | 67 | 1009.9 |
| 20260505204033 | 64 | 47 | 9.6 | 16.5 | 0.00 | 0.00 | 0.00 | 71 | 1009.8 |
| 20260505203028 | 64 | 53 | 8.7 | 19.1 | 0.00 | 0.00 | 0.00 | 74 | 1009.7 |
| 20260505202023 | 64 | 53 | 5.2 | 13.0 | 0.00 | 0.00 | 0.00 | 75 | 1009.6 |
| 20260505201019 | 64 | 58 | 7.0 | 13.0 | 0.00 | 0.00 | 0.00 | 76 | 1009.5 |
| 20260505200034 | 64 | 51 | 5.2 | 14.8 | 0.00 | 0.00 | 0.00 | 77 | 1009.3 |
| 20260505195030 | 65 | 49 | 6.1 | 14.8 | 0.00 | 0.00 | 0.00 | 77 | 1008.9 |
| 20260505194026 | 65 | 67 | 6.1 | 11.3 | 0.00 | 0.00 | 0.00 | 79 | 1008.7 |
| 20260505193041 | 65 | 60 | 4.3 | 14.8 | 0.00 | 0.00 | 0.00 | 80 | 1008.7 |
| 20260505192056 | 65 | 58 | 5.2 | 14.8 | 0.00 | 0.00 | 0.00 | 82 | 1008.5 |
| 20260505191032 | 65 | 58 | 7.0 | 16.5 | 0.00 | 0.00 | 0.00 | 83 | 1008.3 |
| 20260505190027 | 66 | 58 | 7.0 | 15.6 | 0.00 | 0.00 | 0.00 | 82 | 1008.0 |
| 20260505185022 | 66 | 65 | 6.1 | 14.8 | 0.00 | 0.00 | 0.00 | 81 | 1007.9 |
| 20260505184018 | 66 | 55 | 6.1 | 15.6 | 0.00 | 0.00 | 0.00 | 80 | 1007.7 |
| 20260505183033 | 67 | 52 | 4.3 | 11.3 | 0.00 | 0.00 | 0.00 | 78 | 1007.6 |
| 20260505182028 | 68 | 55 | 6.1 | 13.0 | 0.00 | 0.00 | 0.00 | 77 | 1007.6 |
| 20260505181044 | 69 | 70 | 5.2 | 12.2 | 0.00 | 0.00 | 0.00 | 76 | 1007.4 |
| 20260505180020 | 70 | 74 | 3.5 | 9.6 | 0.00 | 0.00 | 0.00 | 71 | 1007.3 |
| 20260505175035 | 71 | 88 | 4.3 | 9.6 | 0.00 | 0.00 | 0.00 | 68 | 1007.0 |
| 20260505174031 | 71 | 82 | 4.3 | 11.3 | 0.00 | 0.00 | 0.00 | 65 | 1006.9 |
| 20260505173025 | 72 | 99 | 7.0 | 12.2 | 0.00 | 0.00 | 0.00 | 60 | 1006.7 |
| 20260505172021 | 73 | 95 | 5.2 | 11.3 | 0.00 | 0.00 | 0.00 | 57 | 1006.8 |
| 20260505171016 | 74 | 93 | 2.6 | 7.8 | 0.00 | 0.00 | 0.00 | 52 | 1006.8 |
| 20260505170032 | 75 | 84 | 1.7 | 5.2 | 0.00 | 0.00 | 0.00 | 48 | 1006.8 |
| 20260505165028 | 75 | 4 | 8.7 | 16.5 | 0.00 | 0.00 | 0.00 | 47 | 1006.8 |
| 20260505164023 | 78 | 321 | 3.5 | 8.7 | 0.00 | 0.00 | 0.00 | 24 | 1006.9 |
| 20260505163018 | 78 | 259 | 4.3 | 8.7 | 0.00 | 0.00 | 0.00 | 24 | 1007.0 |
| 20260505162034 | 78 | 265 | 5.2 | 9.6 | 0.00 | 0.00 | 0.00 | 24 | 1007.0 |
| 20260505161030 | 78 | 309 | 5.2 | 12.2 | 0.00 | 0.00 | 0.00 | 23 | 1007.0 |
| 20260505153051 | 78 | 293 | 6.1 | 11.3 | 0.00 | 0.00 | 0.00 | 24 | 1006.9 |
| 20260505152026 | 78 | 278 | 7.0 | 13.0 | 0.00 | 0.00 | 0.00 | 24 | 1006.9 |
| 20260505151021 | 78 | 282 | 4.3 | 12.2 | 0.00 | 0.00 | 0.00 | 24 | 1007.1 |
| 20260505125017 | 76 | 285 | 4.3 | 13.9 | 0.00 | 0.00 | 0.00 | 27 | 1008.2 |
| 20260505124032 | 76 | 244 | 6.1 | 12.2 | 0.00 | 0.00 | 0.00 | 28 | 1008.3 |
| 20260505123048 | 75 | 310 | 5.2 | 13.0 | 0.00 | 0.00 | 0.00 | 28 | 1008.2 |
| 20260505122023 | 75 | 295 | 3.5 | 7.8 | 0.00 | 0.00 | 0.00 | 28 | 1008.2 |
| 20260505121019 | 76 | 259 | 7.0 | 13.9 | 0.00 | 0.00 | 0.00 | 29 | 1008.2 |
| 20260505120035 | 78 | 240 | 4.3 | 9.6 | 0.00 | 0.00 | 0.00 | 27 | 1008.3 |
| 20260505115050 | 77 | 216 | 5.2 | 15.6 | 0.00 | 0.00 | 0.00 | 27 | 1008.2 |
| 20260505114045 | 76 | 264 | 3.5 | 7.8 | 0.00 | 0.00 | 0.00 | 27 | 1008.5 |
| 20260505113020 | 76 | 278 | 3.5 | 9.6 | 0.00 | 0.00 | 0.00 | 28 | 1008.6 |
| 20260505112015 | 76 | 271 | 2.6 | 7.0 | 0.00 | 0.00 | 0.00 | 28 | 1008.8 |
| 20260505111031 | 76 | 280 | 1.7 | 5.2 | 0.00 | 0.00 | 0.00 | 29 | 1008.9 |
| 20260505102027 | 75 | 244 | 0.9 | 5.2 | 0.00 | 0.00 | 0.00 | 33 | 1009.3 |
| 20260505101021 | 75 | 246 | 1.7 | 3.5 | 0.00 | 0.00 | 0.00 | 33 | 1009.4 |
| 20260505100017 | 73 | 327 | 1.7 | 5.2 | 0.00 | 0.00 | 0.00 | 33 | 1009.5 |
| 20260505095033 | 72 | 279 | 4.3 | 7.0 | 0.00 | 0.00 | 0.00 | 34 | 1009.5 |
| 20260505094048 | 73 | 296 | 4.3 | 9.6 | 0.00 | 0.00 | 0.00 | 32 | 1009.5 |
| 20260505093044 | 72 | 281 | 2.6 | 6.1 | 0.00 | 0.00 | 0.00 | 36 | 1009.4 |
| 20260505092019 | 72 | 294 | 3.5 | 7.8 | 0.00 | 0.00 | 0.00 | 37 | 1009.7 |
| 20260505091034 | 72 | 284 | 0.9 | 2.6 | 0.00 | 0.00 | 0.00 | 45 | 1009.6 |
| 20260505090030 | 71 | 269 | 2.6 | 5.2 | 0.00 | 0.00 | 0.00 | 49 | 1009.7 |
| 20260505085025 | 70 | 224 | 2.6 | 5.2 | 0.00 | 0.00 | 0.00 | 51 | 1009.7 |
| 20260505084020 | 69 | 321 | 1.7 | 5.2 | 0.00 | 0.00 | 0.00 | 50 | 1009.8 |
| 20260505083036 | 68 | 259 | 1.7 | 5.2 | 0.00 | 0.00 | 0.00 | 55 | 1009.8 |
| 20260505082032 | 67 | 267 | 1.7 | 3.5 | 0.00 | 0.00 | 0.00 | 59 | 1009.9 |
| 20260505081046 | 66 | 253 | 3.5 | 6.1 | 0.00 | 0.00 | 0.00 | 61 | 1009.9 |
| 20260505080022 | 66 | 270 | 2.6 | 5.2 | 0.00 | 0.00 | 0.00 | 62 | 1009.9 |
| 20260505075018 | 65 | 285 | 2.6 | 7.0 | 0.00 | 0.00 | 0.00 | 60 | 1010.1 |
| 20260505074033 | 65 | 282 | 3.5 | 7.0 | 0.00 | 0.00 | 0.00 | 59 | 1010.1 |
| 20260505073029 | 64 | 286 | 3.5 | 7.8 | 0.00 | 0.00 | 0.00 | 61 | 1010.1 |
| 20260505072024 | 64 | 318 | 4.3 | 7.8 | 0.00 | 0.00 | 0.00 | 64 | 1010.2 |
| 20260505071020 | 63 | 308 | 1.7 | 5.2 | 0.00 | 0.00 | 0.00 | 70 | 1010.2 |
| 20260505070016 | 62 | 317 | 2.6 | 6.1 | 0.00 | 0.00 | 0.00 | 73 | 1010.2 |
| 20260505065031 | 62 | 295 | 1.7 | 3.5 | 0.00 | 0.00 | 0.00 | 75 | 1010.3 |
| 20260505064026 | 61 | 279 | 2.6 | 6.1 | 0.00 | 0.00 | 0.00 | 76 | 1010.2 |
| 20260505063021 | 61 | 282 | 3.5 | 5.2 | 0.00 | 0.00 | 0.00 | 80 | 1010.1 |
| 20260505062037 | 60 | 291 | 2.6 | 5.2 | 0.00 | 0.00 | 0.00 | 81 | 1010.2 |
| 20260505061032 | 60 | 304 | 2.6 | 6.1 | 0.00 | 0.00 | 0.00 | 83 | 1010.0 |
| 20260505060028 | 60 | 279 | 2.6 | 7.8 | 0.00 | 0.00 | 0.00 | 84 | 1010.1 |
| 20260505055024 | 59 | 286 | 2.6 | 5.2 | 0.00 | 0.00 | 0.00 | 86 | 1010.0 |
| 20260505054018 | 59 | 297 | 1.7 | 3.5 | 0.00 | 0.00 | 0.00 | 87 | 1010.0 |
| 20260505053034 | 59 | 287 | 2.6 | 7.0 | 0.00 | 0.00 | 0.00 | 89 | 1009.9 |
| 20260505052029 | 59 | 280 | 1.7 | 5.2 | 0.00 | 0.00 | 0.00 | 90 | 1009.8 |
| 20260505051024 | 59 | 295 | 0.9 | 2.6 | 0.00 | 0.00 | 0.00 | 91 | 1009.8 |
| 20260505041016 | 60 | 314 | 0.0 | 0.9 | 0.00 | 0.00 | 0.00 | 91 | 1009.9 |
| 20260505040031 | 60 | 334 | 0.9 | 1.7 | 0.00 | 0.00 | 0.00 | 91 | 1009.9 |
| 20260505035027 | 60 | 313 | 0.0 | 0.9 | 0.00 | 0.00 | 0.00 | 91 | 1010.0 |
| 20260505034022 | 60 | 331 | 0.0 | 0.9 | 0.00 | 0.00 | 0.00 | 91 | 1010.1 |
| 20260505033017 | 59 | 0.0 | 0.0 | 0.00 | 0.00 | 0.00 | 91 | 1010.1 | |
| 20260505032032 | 59 | 0.0 | 0.0 | 0.00 | 0.00 | 0.00 | 90 | 1010.2 | |
| 20260505031028 | 60 | 0.0 | 0.0 | 0.00 | 0.00 | 0.00 | 90 | 1010.2 | |
| 20260505030043 | 60 | 0.0 | 0.0 | 0.00 | 0.00 | 0.00 | 90 | 1010.2 |